Tracking 18844 objects as of 21-Nov-2017
HD Live streaming from Space Station
objects crossing your sky now

CZ-2C DEB

Track CZ-2C DEB now!
10-day predictions


NORAD ID: 36092
Int'l Code: 2009-061E
Perigee: 697.6 km
Apogee: 911.7 km
Inclination: 98.5 °
Period: 100.8 minutes
Semi major axis: 7175 km
RCS: 0.0891 m2 (small)
Launch date: November 12, 2009
Source: People's Republic of China (PRC)
Launch site: Jiuquan Satellite Launch Center, China (JSC)

Note: This is SATELLITE DEBRIS
aabbcc
Your satellite tracking list
Your tracking list is empty




NASA's NSSDC Master Catalog

Two Line Element Set (TLE):
1 36092U 09061E   17324.91224603 +.00000384 +00000-0 +15269-3 0  9991
2 36092 098.4554 301.7196 0149166 222.7324 190.4002 14.28267570417306
Source of the keplerian elements: AFSPC